FIN7HM EFHK-EFOU

Flight info

Callsign FIN7HM
Flight time 0h 48m
Altitude 30000
Route TEVRU Y75 SUVIB
Aircraft A320/M-SDE3FGHIRWY/LB1

Departure

Time 2026-05-04 13:54
Airport Helsinki Vantaa Airport (EFHK)

Arrival

Time 2026-05-04 14:42
Airport Oulu Airport (EFOU)
Time Latitude Longitude Altitude Speed Heading
2026-05-04 13:17 60.31902 24.96962 162 ft 0 kts 242°
2026-05-04 13:44 60.31907 24.96979 161 ft 3 kts 244°
2026-05-04 13:45 60.31916 24.97024 161 ft 3 kts 257°
2026-05-04 13:45 60.31918 24.97070 161 ft 3 kts 280°
2026-05-04 13:45 60.31910 24.97108 161 ft 3 kts 329°
2026-05-04 13:45 60.31907 24.97112 161 ft 0 kts 333°
2026-05-04 13:48 60.31931 24.97088 161 ft 8 kts 333°
2026-05-04 13:48 60.31979 24.97037 161 ft 8 kts 333°
2026-05-04 13:48 60.32026 24.96988 161 ft 7 kts 332°
2026-05-04 13:48 60.32070 24.96939 161 ft 9 kts 330°
2026-05-04 13:49 60.32117 24.96882 161 ft 7 kts 329°
2026-05-04 13:49 60.32168 24.96821 161 ft 9 kts 329°
2026-05-04 13:49 60.32220 24.96760 161 ft 9 kts 330°
2026-05-04 13:49 60.32284 24.96689 161 ft 10 kts 331°
2026-05-04 13:50 60.32348 24.96614 162 ft 16 kts 330°
2026-05-04 13:50 60.32456 24.96483 161 ft 20 kts 329°
2026-05-04 13:50 60.32579 24.96340 161 ft 21 kts 330°
2026-05-04 13:50 60.32709 24.96189 161 ft 22 kts 330°
2026-05-04 13:51 60.32848 24.96028 161 ft 24 kts 330°
2026-05-04 13:51 60.32995 24.95855 161 ft 25 kts 329°
2026-05-04 13:51 60.33139 24.95646 161 ft 26 kts 318°
2026-05-04 13:51 60.33191 24.95362 161 ft 22 kts 237°
2026-05-04 13:52 60.33109 24.94851 161 ft 20 kts 272°
2026-05-04 13:52 60.33117 24.94569 166 ft 19 kts 274°
2026-05-04 13:52 60.33094 24.94354 174 ft 18 kts 235°
2026-05-04 13:53 60.32920 24.93961 176 ft 70 kts 227°
2026-05-04 13:53 60.32450 24.92926 161 ft 131 kts 227°
2026-05-04 13:53 60.31741 24.91366 371 ft 157 kts 228°
2026-05-04 13:54 60.30403 24.87908 1599 ft 165 kts 248°
2026-05-04 13:54 60.30176 24.85507 1898 ft 187 kts 272°
2026-05-04 13:54 60.31208 24.79988 2589 ft 236 kts 294°
2026-05-04 13:55 60.31928 24.76902 3265 ft 248 kts 295°
2026-05-04 13:55 60.33602 24.70687 5197 ft 254 kts 298°
2026-05-04 13:55 60.34483 24.67571 6190 ft 257 kts 298°
2026-05-04 13:56 60.35588 24.64697 7059 ft 265 kts 316°
2026-05-04 13:56 60.37234 24.62883 7923 ft 278 kts 340°
2026-05-04 13:56 60.41262 24.63511 9629 ft 305 kts
2026-05-04 13:57 60.43382 24.64486 10111 ft 323 kts
2026-05-04 13:57 60.45645 24.65538 10396 ft 344 kts
2026-05-04 13:58 60.52873 24.68925 12383 ft 363 kts
2026-05-04 13:58 60.57856 24.71226 13816 ft 372 kts
2026-05-04 13:58 60.60397 24.72393 14454 ft 376 kts
2026-05-04 13:59 60.62963 24.73570 15075 ft 380 kts
2026-05-04 13:59 60.65559 24.74765 15693 ft 384 kts
2026-05-04 13:59 60.70820 24.77204 16917 ft 392 kts
2026-05-04 14:00 60.73495 24.78445 17527 ft 396 kts
2026-05-04 14:00 60.78878 24.80942 18610 ft 403 kts
2026-05-04 14:00 60.81634 24.82213 19146 ft 406 kts
2026-05-04 14:01 60.84415 24.83016 19694 ft 405 kts
2026-05-04 14:01 60.87231 24.83682 20256 ft 408 kts
2026-05-04 14:01 60.92919 24.85014 21303 ft 415 kts
2026-05-04 14:02 60.95800 24.85690 21826 ft 418 kts
2026-05-04 14:02 60.98705 24.86379 22381 ft 422 kts
2026-05-04 14:02 61.01641 24.87078 22873 ft 426 kts
2026-05-04 14:02 61.04589 24.87777 23324 ft 430 kts
2026-05-04 14:03 61.07576 24.88483 23734 ft 433 kts
2026-05-04 14:03 61.10542 24.89191 24129 ft 436 kts
2026-05-04 14:03 61.13604 24.89926 24592 ft 439 kts
2026-05-04 14:03 61.16615 24.90652 24995 ft 442 kts
2026-05-04 14:04 61.22765 24.92139 25778 ft 448 kts
2026-05-04 14:04 61.25876 24.92895 26152 ft 451 kts
2026-05-04 14:04 61.28990 24.93653 26513 ft 453 kts
2026-05-04 14:05 61.34284 24.94939 27112 ft 458 kts
2026-05-04 14:05 61.37412 24.95695 27458 ft 460 kts 360°
2026-05-04 14:05 61.40601 24.96468 27803 ft 463 kts
2026-05-04 14:06 61.43799 24.97245 28133 ft 465 kts
2026-05-04 14:06 61.47049 24.98041 28503 ft 468 kts
2026-05-04 14:06 61.50287 24.98837 28816 ft 471 kts
2026-05-04 14:06 61.53560 24.99643 29132 ft 473 kts
2026-05-04 14:07 61.56850 25.00454 29444 ft 475 kts
2026-05-04 14:07 61.60142 25.01268 29603 ft 474 kts 360°
2026-05-04 14:07 61.63311 25.01653 29623 ft 452 kts 354°
2026-05-04 14:08 61.69517 25.01906 29625 ft 443 kts 353°
2026-05-04 14:08 61.75678 25.02112 29621 ft 442 kts 353°
2026-05-04 14:09 61.84883 25.02435 29609 ft 441 kts 353°
2026-05-04 14:10 61.94083 25.02791 29612 ft 440 kts 353°
2026-05-04 14:10 62.00202 25.03045 29606 ft 440 kts 353°
2026-05-04 14:11 62.06327 25.03276 29606 ft 440 kts 353°
2026-05-04 14:11 62.15512 25.03622 29617 ft 440 kts 353°
2026-05-04 14:12 62.21636 25.03857 29610 ft 440 kts 353°
2026-05-04 14:13 62.30821 25.04218 29594 ft 439 kts 353°
2026-05-04 14:13 62.36936 25.04464 29586 ft 439 kts 353°
2026-05-04 14:14 62.43047 25.04696 29586 ft 439 kts 353°
2026-05-04 14:14 62.52175 25.05035 29581 ft 439 kts 353°
2026-05-04 14:15 62.64410 25.05505 29604 ft 438 kts 353°
2026-05-04 14:16 62.73555 25.05867 29596 ft 438 kts 353°
2026-05-04 14:17 62.82654 25.06227 29576 ft 438 kts 353°
2026-05-04 14:18 62.91802 25.06595 29564 ft 438 kts 353°
2026-05-04 14:19 63.03992 25.07073 29551 ft 437 kts 353°
2026-05-04 14:19 63.10084 25.07310 29579 ft 438 kts 353°
2026-05-04 14:20 63.16182 25.07567 29548 ft 438 kts 353°
2026-05-04 14:20 63.22247 25.07822 29540 ft 439 kts 353°
2026-05-04 14:21 63.31404 25.08213 29452 ft 436 kts 353°
2026-05-04 14:21 63.34414 25.08342 29159 ft 430 kts 353°
2026-05-04 14:21 63.37398 25.08464 28870 ft 427 kts 353°
2026-05-04 14:22 63.40364 25.08584 28580 ft 425 kts 353°
2026-05-04 14:22 63.43316 25.08699 28321 ft 423 kts 353°
2026-05-04 14:22 63.46254 25.08818 28046 ft 421 kts 353°
2026-05-04 14:22 63.49171 25.08936 27787 ft 417 kts 353°
2026-05-04 14:23 63.54921 25.09173 26970 ft 409 kts 353°
2026-05-04 14:23 63.57738 25.09294 26559 ft 405 kts 353°
2026-05-04 14:23 63.60544 25.09410 26149 ft 401 kts 353°
2026-05-04 14:24 63.63322 25.09520 25735 ft 398 kts 353°
2026-05-04 14:24 63.66081 25.09634 25319 ft 395 kts 353°
2026-05-04 14:24 63.68825 25.09748 24885 ft 393 kts 353°
2026-05-04 14:24 63.71518 25.09862 24463 ft 390 kts 353°
2026-05-04 14:25 63.74256 25.09979 24017 ft 388 kts 353°
2026-05-04 14:25 63.79637 25.10207 23125 ft 385 kts 353°
2026-05-04 14:25 63.82284 25.10316 22623 ft 383 kts 353°
2026-05-04 14:26 63.84937 25.10422 22180 ft 380 kts 353°
2026-05-04 14:26 63.87571 25.10527 21751 ft 377 kts 353°
2026-05-04 14:26 63.90196 25.10637 21316 ft 375 kts 353°
2026-05-04 14:26 63.92794 25.10743 20869 ft 373 kts 353°
2026-05-04 14:27 63.95401 25.10853 20388 ft 372 kts 353°
2026-05-04 14:27 63.97995 25.10962 19933 ft 375 kts 354°
2026-05-04 14:27 64.00607 25.11068 19481 ft 376 kts 354°
2026-05-04 14:27 64.03222 25.11176 19031 ft 375 kts 354°
2026-05-04 14:28 64.05826 25.11287 18627 ft 374 kts 354°
2026-05-04 14:28 64.08420 25.11398 18206 ft 372 kts 354°
2026-05-04 14:28 64.11006 25.11509 17765 ft 371 kts 355°
2026-05-04 14:28 64.13587 25.11622 17263 ft 370 kts 355°
2026-05-04 14:29 64.18693 25.11839 16303 ft 368 kts 355°
2026-05-04 14:29 64.23793 25.12057 15394 ft 365 kts 355°
2026-05-04 14:30 64.26327 25.12169 14963 ft 363 kts 356°
2026-05-04 14:30 64.28847 25.12283 14560 ft 361 kts 356°
2026-05-04 14:30 64.33826 25.12503 13813 ft 355 kts 356°
2026-05-04 14:31 64.36279 25.12605 13446 ft 352 kts 356°
2026-05-04 14:31 64.41136 25.12876 12628 ft 347 kts
2026-05-04 14:32 64.45704 25.16400 11831 ft 349 kts 29°
2026-05-04 14:32 64.47761 25.19321 11431 ft 344 kts 30°
2026-05-04 14:32 64.49767 25.22194 11037 ft 335 kts 30°
2026-05-04 14:32 64.51726 25.25002 10650 ft 327 kts 30°
2026-05-04 14:33 64.53618 25.27718 10316 ft 312 kts 30°
2026-05-04 14:33 64.55436 25.30317 10041 ft 302 kts 30°
2026-05-04 14:33 64.57196 25.32839 9765 ft 293 kts 31°
2026-05-04 14:33 64.58908 25.35294 9488 ft 285 kts 31°
2026-05-04 14:34 64.60580 25.37690 9183 ft 279 kts 31°
2026-05-04 14:34 64.62223 25.40040 8895 ft 275 kts 31°
2026-05-04 14:34 64.63841 25.42371 8596 ft 271 kts 31°
2026-05-04 14:34 64.65437 25.44674 8300 ft 268 kts 31°
2026-05-04 14:35 64.67009 25.46941 7984 ft 262 kts 32°
2026-05-04 14:35 64.68524 25.49126 7664 ft 256 kts 32°
2026-05-04 14:35 64.70021 25.51290 7373 ft 251 kts 32°
2026-05-04 14:35 64.71489 25.53418 7067 ft 244 kts 33°
2026-05-04 14:36 64.72890 25.55450 6756 ft 230 kts 33°
2026-05-04 14:36 64.74218 25.57377 6459 ft 218 kts 33°
2026-05-04 14:36 64.75468 25.59190 6109 ft 205 kts 34°
2026-05-04 14:36 64.76633 25.60877 5833 ft 188 kts 34°
2026-05-04 14:37 64.77725 25.62449 5505 ft 183 kts 34°
2026-05-04 14:37 64.78813 25.64003 5204 ft 183 kts 34°
2026-05-04 14:37 64.79900 25.65552 4907 ft 182 kts 33°
2026-05-04 14:37 64.80977 25.67088 4609 ft 181 kts 33°
2026-05-04 14:38 64.82056 25.68604 4304 ft 180 kts 30°
2026-05-04 14:38 64.83261 25.69190 3989 ft 176 kts 354°
2026-05-04 14:38 64.84362 25.68256 3696 ft 163 kts 322°
2026-05-04 14:38 64.85076 25.66341 3424 ft 152 kts 297°
2026-05-04 14:39 64.85617 25.64218 3164 ft 151 kts 298°
2026-05-04 14:39 64.86160 25.62114 2906 ft 150 kts 298°
2026-05-04 14:39 64.86700 25.60027 2632 ft 149 kts 298°
2026-05-04 14:40 64.87774 25.55875 2109 ft 148 kts 298°
2026-05-04 14:40 64.88305 25.53818 1839 ft 146 kts 299°
2026-05-04 14:40 64.88831 25.51774 1617 ft 146 kts 298°
2026-05-04 14:40 64.89351 25.49757 1398 ft 146 kts 299°
2026-05-04 14:41 64.89867 25.47720 1160 ft 144 kts 299°
2026-05-04 14:41 64.90370 25.45706 980 ft 141 kts 300°
2026-05-04 14:41 64.91361 25.41862 586 ft 134 kts 303°
2026-05-04 14:42 64.92321 25.38144 144 ft 132 kts 303°
2026-05-04 14:42 64.92780 25.36385 51 ft 112 kts 302°
2026-05-04 14:42 64.93038 25.35373 50 ft 30 kts 304°
2026-05-04 14:43 64.93195 25.35225 43 ft 20 kts 20°
2026-05-04 14:43 64.93207 25.35459 42 ft 13 kts 119°
2026-05-04 14:43 64.93166 25.35637 44 ft 12 kts 119°
2026-05-04 14:43 64.93125 25.35791 44 ft 10 kts 122°
2026-05-04 14:44 64.93088 25.35929 43 ft 9 kts 121°
2026-05-04 14:44 64.93050 25.36077 44 ft 16 kts 121°
2026-05-04 14:44 64.92989 25.36318 43 ft 16 kts 121°
2026-05-04 14:44 64.92933 25.36538 43 ft 15 kts 121°
2026-05-04 14:45 64.92883 25.36737 44 ft 13 kts 120°
2026-05-04 14:45 64.92838 25.36916 44 ft 12 kts 122°
2026-05-04 14:45 64.92796 25.37076 44 ft 10 kts 122°
2026-05-04 14:45 64.92804 25.37191 43 ft 6 kts 64°
2026-05-04 14:46 64.92816 25.37248 41 ft 3 kts 63°
2026-05-04 14:46 64.92823 25.37282 43 ft 0 kts 63°
2026-05-04 14:49 64.92823 25.37281 43 ft 0 kts 63°